This is the latest recevied weather packets stored in our database for station/object N3WAX-1. If no packets are shown the sender has not sent any weather packets the latest 10 day(s).
| Time | Temp. | Humidity | Pressure | Rain* | Wind** | Luminosity | Snow |
|---|---|---|---|---|---|---|---|
| 1777571194 | 16.67° C | 70% | 1007.8 hPa | 0 mm | - | 1123 W/m² | - |
| 1777570594 | 16.67° C | 70% | 1007.9 hPa | 0 mm | - | 315 W/m² | - |
| 1777569990 | 15.56° C | 74% | 1008 hPa | 0 mm | - | 420 W/m² | - |
| 1777569391 | 15.56° C | 73% | 1008 hPa | 0 mm | - | 362 W/m² | - |
| 1777569090 | 15.56° C | 73% | 1007.8 hPa | 0 mm | - | 278 W/m² | - |
| 1777567891 | 16.11° C | 72% | 1007.9 hPa | 0 mm | - | 1160 W/m² | - |
| 1777566529 | 15.56° C | 75% | 1008.2 hPa | 0 mm | - | 714 W/m² | - |
| 1777565930 | 15.56° C | 77% | 1008 hPa | 0 mm | - | 369 W/m² | - |
| 1777563974 | 15.56° C | 77% | 1008.3 hPa | 0 mm | - | 967 W/m² | - |
| 1777562440 | 13.89° C | 81% | 1008.7 hPa | 0 mm | - | 464 W/m² | - |
| 1777561073 | 12.78° C | 84% | 1009.2 hPa | 0 mm | - | 336 W/m² | - |
| 1777560627 | 12.78° C | 84% | 1009.1 hPa | 0 mm | - | 239 W/m² | - |
| 1777553008 | 10.56° C | 97% | 1007.8 hPa | 0 mm | - | 114 W/m² | - |
| 1777549355 | 10.56° C | 98% | 1007.8 hPa | 0 mm | - | 118 W/m² | - |
| 1777548754 | 10° C | 98% | 1007.8 hPa | 0 mm | - | 97 W/m² | - |
| 1777547557 | 10° C | 98% | 1007.8 hPa | 0 mm | - | 63 W/m² | - |
| 1777547252 | 9.44° C | 98% | 1007.8 hPa | 0 mm | - | 49 W/m² | - |
| 1777546346 | 9.44° C | 97% | 1007.9 hPa | 0 mm | - | 39 W/m² | - |
| 1777542730 | 8.89° C | 97% | 1007.4 hPa | 0 mm | - | 0 W/m² | - |
| 1777540328 | 8.89° C | 97% | 1007.4 hPa | 0 mm | - | 0 W/m² | - |
| 1777539428 | 8.89° C | 97% | 1007.3 hPa | 0 mm | - | 0 W/m² | - |
| 1777537927 | 8.89° C | 97% | 1007.3 hPa | 0 mm | - | 0 W/m² | - |
| 1777537630 | 8.89° C | 97% | 1007.2 hPa | 0 mm | - | 0 W/m² | - |
| 1777537319 | 8.89° C | 97% | 1007.1 hPa | 0 mm | - | 0 W/m² | - |
| 1777537014 | 8.89° C | 97% | 1007 hPa | 0 mm | - | 0 W/m² | - |
* Rain latest hour (hover to see other rain measurements)
** Current wind speed in m/s (hover to see current wind gust speed)